EW0765 Weather Reports


time (UTC)temp
F
wind
direction
speed
knots
gust
knots
rain 1hr
in
rain 24hr
in
rain mn
in
humidity
%
barometer
mb
20260510164548 58 74 0.0 4.3 0.00 0.36 0.00 38 1017.8
20260510163046 58 41 0.0 2.6 0.00 0.36 0.00 49 1017.8
20260510161541 58 34 0.9 6.1 0.00 0.36 0.00 47 1017.6
20260510160040 58 167 0.0 0.9 0.00 0.36 0.00 52 1017.5
20260510154540 57 58 0.9 7.0 0.00 0.36 0.00 50 1017.3
20260510153036 57 25 0.0 1.7 0.00 0.36 0.00 53 1017.3
20260510151537 56 344 0.0 2.6 0.00 0.36 0.00 53 1017.1
20260510150031 55 128 0.0 7.8 0.00 0.36 0.00 50 1017.0
20260510144544 55 39 2.6 9.6 0.00 0.36 0.00 49 1016.8
20260510143028 54 88 0.0 7.0 0.00 0.36 0.00 52 1016.7
20260510141527 54 306 0.0 7.8 0.00 0.36 0.00 54 1016.7
20260510140024 53 69 0.9 7.8 0.00 0.36 0.00 56 1016.8
20260510134524 52 46 0.0 9.6 0.00 0.36 0.00 59 1016.8
20260510133024 52 37 0.9 4.3 0.00 0.36 0.00 58 1016.5
20260510131520 51 80 0.0 7.8 0.00 0.36 0.00 62 1016.2
20260510130018 50 222 0.0 8.7 0.00 0.36 0.00 66 1015.9
20260510124514 49 35 0.0 2.6 0.00 0.36 0.00 69 1015.7
20260510123012 49 30 0.9 6.1 0.00 0.36 0.00 74 1015.6
20260510121511 48 60 1.7 7.8 0.00 0.36 0.00 75 1015.4
20260510120008 48 71 0.0 1.7 0.00 0.36 0.00 78 1015.0
20260510114507 48 104 0.9 5.2 0.00 0.36 0.00 79 1014.6
20260510113003 48 340 0.0 7.8 0.00 0.36 0.00 81 1014.3
20260510111608 47 346 0.0 3.5 0.00 0.36 0.00 84 1014.1
20260510110059 47 63 0.0 0.9 0.00 0.36 0.00 86 1013.7
20260510104612 47 30 0.0 0.9 0.00 0.36 0.00 86 1013.2
20260510103054 47 75 0.0 0.0 0.00 0.36 0.00 87 1012.8
20260510101552 47 65 0.0 0.0 0.00 0.36 0.00 87 1012.6
20260510100053 48 55 0.0 0.0 0.00 0.36 0.00 88 1012.4
20260510094549 48 55 0.0 0.0 0.00 0.36 0.00 88 1012.4
20260510093048 48 5 0.0 0.0 0.00 0.36 0.00 90 1012.1
20260510091545 48 59 0.0 0.0 0.00 0.36 0.00 91 1011.8
20260510090043 48 61 0.0 0.0 0.00 0.36 0.00 90 1011.5
20260510084541 49 61 0.0 0.0 0.00 0.36 0.00 90 1011.3
20260510083039 49 61 0.0 0.0 0.00 0.36 0.00 89 1011.2
20260510081542 49 61 0.0 0.0 0.00 0.36 0.00 88 1011.0
20260510080034 49 61 0.0 0.0 0.00 0.36 0.00 87 1010.7
20260510074535 50 61 0.0 0.0 0.00 0.36 0.00 86 1010.3
20260510073031 50 61 0.0 0.0 0.00 0.36 0.00 84 1010.1
20260510071528 51 61 0.0 0.0 0.00 0.36 0.00 83 1010.1
20260510070025 51 61 0.0 1.7 0.00 0.36 0.00 81 1009.9
20260510064526 51 77 0.0 0.9 0.00 0.36 0.00 84 1009.5
20260510063023 51 98 0.0 7.0 0.00 0.36 0.00 86 1009.5
20260510061530 51 80 0.0 7.0 0.00 0.36 0.00 86 1009.7
20260510060039 52 53 1.7 9.6 0.00 0.36 0.00 90 1009.4
20260510054515 55 41 0.0 0.0 0.00 0.36 0.00 95 1008.9
20260510053013 54 265 0.0 0.0 0.00 0.36 0.00 94 1008.7
20260510051512 54 265 0.0 0.0 0.00 0.36 0.00 94 1008.6
20260510050008 54 266 0.0 0.0 0.00 0.36 0.00 94 1008.0
20260510044506 54 265 0.0 0.0 0.00 0.36 0.00 94 1007.9
20260510043006 54 262 0.0 0.0 0.02 0.36 0.00 93 1006.9
20260510041508 55 262 0.0 0.0 0.04 0.36 0.00 93 1006.9
20260510040100 55 263 0.0 0.0 0.04 0.36 0.36 93 1006.8
20260510034559 55 263 0.0 0.0 0.04 0.36 0.36 93 1006.7
20260510033100 55 252 0.9 7.8 0.02 0.34 0.34 93 1007.2
20260510031627 55 271 0.0 0.0 0.01 0.32 0.32 93 1006.8
20260510030057 55 274 0.0 0.0 0.01 0.32 0.32 93 1006.9
20260510024558 55 274 0.0 0.0 0.01 0.32 0.32 93 1006.8
20260510023101 55 274 0.0 5.2 0.01 0.32 0.32 93 1006.7
20260510021556 55 242 0.0 2.6 0.00 0.31 0.31 94 1007.3
20260510020056 55 282 0.0 0.0 0.00 0.32 0.31 93 1006.5
20260510014555 55 283 0.0 0.0 0.00 0.32 0.31 93 1006.3
20260510013054 55 282 0.0 0.0 0.00 0.32 0.31 92 1006.2
20260510011609 56 283 0.0 0.0 0.00 0.32 0.31 92 1006.2
20260510010106 56 283 0.0 0.0 0.00 0.35 0.31 92 1006.1
20260510004554 56 283 0.0 0.0 0.00 0.35 0.31 92 1005.9
20260510003058 57 283 0.0 0.0 0.00 0.35 0.31 92 1006.0
20260510001553 57 284 0.0 0.0 0.01 0.35 0.31 92 1006.0
20260510000052 57 284 0.0 0.0 0.10 0.40 0.31 92 1006.0
20260509234556 57 266 0.0 0.0 0.26 0.40 0.31 92 1005.8
20260509233057 57 265 0.0 0.0 0.31 0.40 0.31 92 1005.9
20260509231559 56 259 0.0 7.8 0.30 0.39 0.30 91 1006.0
20260509230053 57 253 1.7 11.3 0.20 0.34 0.20 89 1006.4
20260509224549 62 309 4.3 15.6 0.04 0.18 0.04 77 1005.6
20260509223050 69 259 0.0 9.6 0.00 0.14 0.00 54 1003.6
20260509221548 69 248 0.0 3.5 0.00 0.14 0.00 54 1003.0
20260509220048 70 216 0.0 5.2 0.00 0.16 0.00 55 1003.4
20260509214547 71 194 0.0 7.0 0.00 0.16 0.00 53 1003.1
20260509213100 71 178 0.0 5.2 0.00 0.16 0.00 54 1003.1
20260509211610 71 279 0.0 10.4 0.00 0.16 0.00 57 1003.0
20260509210043 71 218 1.7 7.8 0.00 0.16 0.00 57 1003.3
20260509204556 71 253 1.7 7.8 0.00 0.16 0.00 56 1003.6
20260509203046 71 170 0.0 5.2 0.00 0.16 0.00 56 1003.9
20260509201537 71 175 1.7 8.7 0.00 0.16 0.00 56 1004.1
20260509200035 70 323 0.9 9.6 0.00 0.16 0.00 56 1004.4
20260509194533 70 200 0.0 7.8 0.00 0.16 0.00 58 1004.5
20260509193031 70 221 1.7 10.4 0.00 0.16 0.00 60 1004.7
20260509191529 69 180 0.0 6.1 0.00 0.16 0.00 62 1004.9
20260509190027 69 290 0.0 8.7 0.00 0.16 0.00 62 1005.4
20260509184525 68 314 1.7 7.8 0.00 0.16 0.00 63 1005.5
20260509183023 67 221 0.0 7.8 0.00 0.16 0.00 65 1005.5
20260509181521 67 259 0.0 8.7 0.00 0.16 0.00 62 1005.5
20260509180020 68 232 0.9 10.4 0.00 0.16 0.00 64 1005.5
20260509174518 67 229 1.7 9.6 0.00 0.16 0.00 64 1005.5
20260509173017 67 284 1.7 4.3 0.00 0.16 0.00 63 1005.9
20260509171514 66 241 0.0 4.3 0.00 0.16 0.00 66 1005.8
20260509170012 65 226 0.0 4.3 0.00 0.16 0.00 68 1005.8